K7JKM Weather Reports


time (UTC)temp
F
wind
direction
speed
knots
gust
knots
rain 1hr
in
rain 24hr
in
rain mn
in
humidity
%
barometer
mb
20260506184514 64 66 0.0 1.7 0.00 0.00 0.00 56 1021.5
20260506183028 64 223 0.0 3.5 0.00 0.00 0.00 57 1021.5
20260506181533 62 202 0.0 1.7 0.00 0.00 0.00 58 1021.7
20260506180005 61 124 0.0 2.6 0.00 0.00 0.00 59 1021.6
20260506174505 60 214 0.0 0.9 0.00 0.00 0.00 59 1021.5
20260506173004 59 120 0.0 0.0 0.00 0.00 0.00 61 1021.8
20260506171512 58 229 0.0 0.0 0.00 0.00 0.00 61 1021.9
20260506170004 58 271 0.0 0.0 0.00 0.00 0.00 62 1021.5
20260506164503 57 68 0.0 0.9 0.00 0.00 0.00 63 1021.7
20260506163008 57 198 0.0 0.0 0.00 0.00 0.00 62 1021.6
20260506161509 56 305 0.0 0.0 0.00 0.00 0.00 62 1021.6
20260506160008 56 193 0.0 0.9 0.00 0.00 0.00 62 1021.3
20260506154507 55 226 0.0 0.0 0.00 0.00 0.00 63 1021.3
20260506153003 54 323 0.0 0.0 0.00 0.00 0.00 64 1021.5
20260506151503 54 119 0.0 3.5 0.00 0.00 0.00 65 1021.7
20260506150003 54 283 0.0 1.7 0.00 0.00 0.00 66 1021.8
20260506144513 54 290 0.0 1.7 0.00 0.00 0.00 65 1021.7
20260506143017 53 148 0.0 0.0 0.00 0.00 0.00 66 1021.0
20260506141515 53 213 0.0 0.0 0.00 0.00 0.00 66 1020.5
20260506140018 53 165 0.0 0.0 0.00 0.00 0.00 65 1020.4
20260506134510 53 165 0.0 0.0 0.00 0.00 0.00 64 1020.2
20260506133007 53 173 0.0 0.0 0.00 0.00 0.00 64 1020.3
20260506131520 53 22 0.0 0.0 0.00 0.00 0.00 64 1020.3
20260506130018 54 172 0.0 0.9 0.00 0.00 0.00 64 1020.1
20260506124519 54 156 0.0 0.9 0.00 0.00 0.00 64 1020.0
20260506123020 54 138 0.0 2.6 0.00 0.00 0.00 64 1020.1
20260506121514 54 295 0.0 0.9 0.00 0.00 0.00 65 1020.0
20260506120018 53 138 0.0 1.7 0.00 0.00 0.00 65 1019.8
20260506114509 53 129 0.0 0.9 0.00 0.00 0.00 65 1019.6
20260506113021 53 224 0.0 1.7 0.00 0.00 0.00 65 1019.5
20260506111523 53 246 0.0 0.9 0.00 0.00 0.00 66 1019.4
20260506110022 53 200 0.0 0.9 0.00 0.00 0.00 67 1019.2
20260506104523 52 141 0.0 0.9 0.00 0.00 0.00 67 1019.0
20260506103020 52 146 0.0 1.7 0.00 0.00 0.00 68 1018.8
20260506101519 52 153 0.0 0.0 0.00 0.00 0.00 68 1018.7
20260506100023 52 198 0.0 0.9 0.00 0.00 0.00 67 1018.7
20260506094528 52 234 0.0 0.0 0.00 0.00 0.00 67 1018.6
20260506093024 52 118 0.0 0.9 0.00 0.00 0.00 67 1018.5
20260506091526 53 205 0.0 0.0 0.00 0.00 0.00 67 1018.4
20260506090006 53 213 0.0 0.0 0.00 0.00 0.00 67 1018.3
20260506084503 54 142 0.0 0.9 0.00 0.00 0.00 67 1018.2
20260506083020 54 184 0.0 0.0 0.00 0.00 0.00 66 1018.1
20260506081518 55 176 0.0 0.9 0.00 0.00 0.00 66 1018.1
20260506073008 55 214 0.0 2.6 0.00 0.00 0.00 65 1017.9
20260506071507 56 179 0.0 0.9 0.00 0.00 0.00 65 1017.8
20260506061518 56 297 0.0 0.9 0.00 0.00 0.00 64 1017.6
20260506044524 59 314 0.0 2.6 0.00 0.00 0.00 61 1017.1
20260506043021 61 300 0.0 3.5 0.00 0.00 0.00 59 1017.0
20260506041521 62 116 0.0 0.0 0.00 0.00 0.00 59 1016.6
20260506040033 63 117 0.0 0.0 0.00 0.00 0.00 58 1016.3
20260506034516 63 117 0.0 0.0 0.00 0.00 0.00 58 1016.2
20260506033010 63 117 0.0 0.0 0.00 0.00 0.00 57 1016.0
20260506031528 63 117 0.0 0.0 0.00 0.00 0.00 58 1015.9
20260506030029 63 115 0.0 0.9 0.00 0.00 0.00 57 1015.8
20260506024529 64 124 0.0 1.7 0.00 0.00 0.00 57 1015.7
20260506023004 64 69 0.0 0.0 0.00 0.00 0.00 57 1015.7
20260506021503 65 120 0.0 0.0 0.00 0.00 0.00 56 1015.9
20260506020016 65 88 0.0 0.0 0.00 0.00 0.00 55 1015.8
20260506014514 65 116 0.0 0.0 0.00 0.00 0.00 53 1015.7
20260506013011 65 4 0.0 0.0 0.00 0.00 0.00 53 1015.8
20260506011509 66 310 0.0 0.0 0.00 0.00 0.00 53 1015.8
20260506010005 67 117 0.0 0.9 0.00 0.00 0.00 53 1015.7
20260506004505 67 143 0.0 0.9 0.00 0.00 0.00 52 1015.8
20260506003004 67 110 0.0 0.9 0.00 0.00 0.00 52 1015.8
20260506001522 68 270 0.0 0.9 0.00 0.00 0.00 50 1015.9
20260506000018 68 234 0.0 0.9 0.00 0.00 0.00 50 1015.9
20260505234531 69 152 0.0 2.6 0.00 0.00 0.00 48 1016.1
20260505233013 67 254 0.0 0.9 0.00 0.00 0.00 51 1016.3
20260505231511 67 63 0.0 0.9 0.00 0.00 0.00 50 1016.3
20260505230008 67 81 0.0 0.9 0.00 0.00 0.00 51 1016.4
20260505224506 65 292 0.0 1.7 0.00 0.00 0.00 52 1016.5
20260505223025 65 327 0.0 1.7 0.00 0.00 0.00 54 1016.7
20260505221523 64 297 0.0 0.9 0.00 0.00 0.00 56 1016.8
20260505220018 63 307 0.0 1.7 0.00 0.00 0.00 55 1016.9
20260505214529 62 28 0.0 0.9 0.00 0.00 0.00 57 1016.9
20260505213013 62 47 0.0 0.9 0.00 0.00 0.00 58 1017.0
20260505211513 62 335 0.0 1.7 0.00 0.00 0.00 57 1017.0
20260505210008 61 46 0.0 0.9 0.00 0.00 0.00 59 1017.0
20260505204525 62 308 0.0 0.0 0.00 0.00 0.00 58 1017.1
20260505203035 61 295 0.0 3.5 0.00 0.00 0.00 59 1017.2
20260505201529 61 293 0.0 0.9 0.00 0.00 0.00 58 1017.2
20260505200021 61 302 0.0 1.7 0.00 0.00 0.00 58 1017.2
20260505194518 61 304 0.0 1.7 0.00 0.00 0.00 57 1017.3
20260505193016 61 291 0.0 0.9 0.00 0.00 0.00 56 1017.3
20260505191527 62 72 0.0 0.0 0.00 0.00 0.00 56 1017.4
20260505190029 62 126 0.0 0.9 0.00 0.00 0.00 55 1017.4